NOAA 16 DEB, 41198

Orbit data source: Space-Track

NOAA 16 DEB, 41198 is space debris in SSO originally from a launch on Thu, 21 Sep 2000 UTC launched from the Air Force Western Test Range (AFWTR). Debris objects in space refer to the collection of defunct objects orbiting the Earth. Examples of debris include non-operational satellites, rocket bodies, and fragments generated from explosions, collisions, or faulty payload assembly.

Loading next visibility...
Identifier
41198, 2000-055DB
Orbit
SSO
Country
Flag of USUS
Related business
Manufacturer
Unknown
Mission
Spacecraft
Bus & Motor
Unknown
Mass
Unknown
Launch date (UTC)
2000-09-21 (25 years ago)
Launch vehicle
Unknown
Launch site
Air Force Western Test Range (AFWTR)
Object type
Payload
Rocket body
Debris
Shape & HBR
Unknown shape, 0.1 m
Radar Cross Section
Small (<0.1 m²)

Expand to show TLE details & history
Last TLE update: 1 day ago

TLE from 1 day ago
0 NOAA 16 DEB
1 41198U 00055DB  26036.25298396  .00025002  00000-0  74466-2 0  9992
2 41198  98.9100 145.6621 0026329 190.1518 169.9142 14.42842104522746
Epoch: 2026-02-05T06:04Z
TLE epoch observation values (Epoch: 2026-02-05T06:04:17.814Z)
Latitude
Longitude
-80.81999°
Altitude
770.543 km
Speed
7.459 km/s
True Right ascension
09h 42m 38s
True Declination
0° 00' 00"
Sunlit
Object was in full shadow at epoch
Visualization orbit readout
Latitude
Unknown
Longitude
Unknown
Altitude
Unknown
Speed
Unknown
Apparent Right ascension
Unknown
Apparent Declination
Unknown
Sunlit
N/A
Visualization observer readout
Local Sidereal Time
09:32:18
Azimuth
Unknown
Elevation
Unknown
Doppler factor
Unknown
Orbital elements
Apogee altitude
765.019 km
Perigee altitude
727.504 km
Semi-major axis
7,124.398 km
Eccentricity
0.00263
Inclination
98.91°
RAAN
145.6621°
Arg. of periapsis
190.1518°
True anomaly
169.96687°
Mean anomaly
169.9142°
Eccentric anomaly
169.94055°
Mean motion
3.60928 °/min
Orbital period
99.74 mins
BSTAR
0.0074466
Loading maneuver chart data...
Computing Atmospheric mass density...
Loading historical data...
Loading historical data...
Loading historical data...
Loading historical data...
Loading historical data...
Loading historical data...
Loading historical data...

Documentation

Showing up to 5 results
|